• In Uzbekistan
  • List of Countries
  • For 7 days
  • Water Temperature
  • Satellite Maps
  • Weather Map
  • Weather Widgets
  • user-avatar
    Login

    Hourly Weather Bukow

    Today, 20 September, Thursday

    Time Temperature Precipitation Wind Pressure Humidity
    00:00 +16°C° 0 mm 1 mps 739 mmHg 80%
    01:00 +15°C° 0 mm 1 mps 739 mmHg 81%
    02:00 +15°C° 0 mm 1 mps 739 mmHg 82%
    03:00 +15°C° 0 mm 1 mps 739 mmHg 83%
    04:00 +14°C° 0 mm 1 mps 739 mmHg 84%
    05:00 +15°C° 0 mm 1 mps 739 mmHg 81%
    06:00 +16°C° 0 mm 1 mps 740 mmHg 78%
    07:00 +18°C° 0 mm 1 mps 740 mmHg 75%
    08:00 +21°C° 0 mm 1 mps 740 mmHg 68%
    09:00 +23°C° 0 mm 1 mps 740 mmHg 60%
    10:00 +25°C° 0 mm 1 mps 740 mmHg 52%
    11:00 +26°C° 0 mm 1 mps 740 mmHg 49%
    12:00 +27°C° 0 mm 1 mps 740 mmHg 46%
    13:00 +28°C° 0 mm 1 mps 739 mmHg 42%
    14:00 +27°C° 0 mm 1 mps 739 mmHg 46%
    15:00 +26°C° 0 mm 1 mps 739 mmHg 50%
    16:00 +25°C° 0 mm 1 mps 739 mmHg 54%
    17:00 +23°C° 0 mm 1 mps 739 mmHg 58%
    18:00 +22°C° 0 mm 1 mps 738 mmHg 62%
    19:00 +20°C° 0 mm 1 mps 738 mmHg 66%
    20:00 +19°C° 0 mm 1 mps 738 mmHg 69%
    21:00 +19°C° 0 mm 1 mps 738 mmHg 72%
    22:00 +18°C° 0 mm 1 mps 738 mmHg 75%
    23:00 +18°C° 0 mm 1 mps 738 mmHg 77%

    Tomorrow, 21 September, Friday

    Time Temperature Precipitation Wind Pressure Humidity
    00:00 +16°C° 0 mm 1 mps 738 mmHg 78%
    01:00 +16°C° 0 mm 1 mps 738 mmHg 79%
    02:00 +16°C° 0 mm 1 mps 738 mmHg 80%
    03:00 +16°C° 0 mm 1 mps 737 mmHg 80%
    04:00 +15°C° 0 mm 1 mps 737 mmHg 81%
    05:00 +16°C° 0 mm 1 mps 737 mmHg 79%
    06:00 +18°C° 0 mm 1 mps 737 mmHg 77%
    07:00 +19°C° 0 mm 1 mps 737 mmHg 75%
    08:00 +20°C° 0 mm 2 mps 737 mmHg 67%
    09:00 +22°C° 0 mm 3 mps 737 mmHg 59%
    10:00 +25°C° 0 mm 3 mps 737 mmHg 52%
    11:00 +26°C° 0 mm 4 mps 737 mmHg 49%
    12:00 +26°C° 0 mm 4 mps 737 mmHg 47%
    13:00 +27°C° 0 mm 4 mps 736 mmHg 44%
    14:00 +27°C° 0 mm 4 mps 736 mmHg 48%
    15:00 +26°C° 0 mm 4 mps 735 mmHg 51%
    16:00 +25°C° 0 mm 3 mps 735 mmHg 54%
    17:00 +24°C° 0 mm 3 mps 735 mmHg 58%
    18:00 +21°C° 0 mm 3 mps 735 mmHg 61%
    19:00 +19°C° 0 mm 3 mps 735 mmHg 64%
    20:00 +19°C° 0 mm 3 mps 735 mmHg 64%
    21:00 +19°C° 0 mm 3 mps 735 mmHg 64%
    22:00 +18°C° 0 mm 3 mps 735 mmHg 64%
    23:00 +18°C° 0 mm 3 mps 735 mmHg 63%

    Day after tomorrow, 22 September, Saturday

    Time Temperature Precipitation Wind Pressure Humidity
    00:00 +18°C° 0 mm 4 mps 735 mmHg 62%
    01:00 +18°C° 0 mm 4 mps 735 mmHg 61%
    02:00 +18°C° 0 mm 3 mps 735 mmHg 61%
    03:00 +18°C° 0 mm 3 mps 735 mmHg 61%
    04:00 +18°C° 0 mm 3 mps 736 mmHg 61%
    05:00 +17°C° 0.1 mm 3 mps 736 mmHg 68%
    06:00 +17°C° 0.1 mm 3 mps 736 mmHg 74%
    07:00 +16°C° 0.1 mm 3 mps 737 mmHg 80%
    08:00 +16°C° 0.1 mm 3 mps 737 mmHg 79%
    09:00 +16°C° 0.1 mm 3 mps 737 mmHg 78%
    10:00 +16°C° 0.1 mm 3 mps 738 mmHg 77%
    11:00 +14°C° 0.9 mm 3 mps 738 mmHg 81%
    12:00 +13°C° 0.9 mm 3 mps 738 mmHg 85%
    13:00 +13°C° 0.9 mm 2 mps 738 mmHg 89%
    14:00 +12°C° 2 mm 2 mps 738 mmHg 90%
    15:00 +12°C° 2 mm 2 mps 738 mmHg 92%
    16:00 +10°C° 2 mm 2 mps 738 mmHg 93%
    17:00 +10°C° 1.2 mm 2 mps 738 mmHg 94%
    18:00 +10°C° 1.2 mm 1 mps 738 mmHg 94%
    19:00 +10°C° 1.2 mm 1 mps 738 mmHg 94%
    20:00 +10°C° 0.1 mm 1 mps 739 mmHg 94%
    21:00 +9°C° 0.1 mm 1 mps 739 mmHg 94%
    22:00 +9°C° 0.1 mm 1 mps 739 mmHg 94%
    23:00 +9°C° 0 mm 1 mps 739 mmHg 93%

    23 September, Sunday

    Time Temperature Precipitation Wind Pressure Humidity
    00:00 +7°C° 0 mm 2 mps 739 mmHg 92%
    01:00 +7°C° 0 mm 2 mps 739 mmHg 90%
    02:00 +7°C° 0 mm 2 mps 739 mmHg 90%
    03:00 +7°C° 0 mm 2 mps 739 mmHg 90%
    04:00 +7°C° 0 mm 2 mps 739 mmHg 90%
    05:00 +8°C° 0 mm 2 mps 739 mmHg 88%
    06:00 +9°C° 0 mm 2 mps 739 mmHg 87%
    07:00 +9°C° 0 mm 2 mps 739 mmHg 85%
    08:00 +12°C° 0 mm 2 mps 739 mmHg 77%
    09:00 +13°C° 0 mm 3 mps 739 mmHg 68%
    10:00 +16°C° 0 mm 3 mps 739 mmHg 59%
    11:00 +17°C° 0 mm 3 mps 739 mmHg 56%
    12:00 +17°C° 0 mm 3 mps 738 mmHg 52%
    13:00 +18°C° 0 mm 3 mps 738 mmHg 48%
    14:00 +18°C° 0 mm 3 mps 737 mmHg 51%
    15:00 +17°C° 0 mm 3 mps 737 mmHg 54%
    16:00 +17°C° 0 mm 2 mps 736 mmHg 57%
    17:00 +16°C° 0 mm 3 mps 736 mmHg 59%
    18:00 +14°C° 0 mm 3 mps 735 mmHg 61%
    19:00 +13°C° 0 mm 4 mps 735 mmHg 63%
    20:00 +13°C° 0 mm 5 mps 734 mmHg 62%
    21:00 +14°C° 0 mm 6 mps 733 mmHg 61%
    22:00 +14°C° 0 mm 6 mps 732 mmHg 59%
    23:00 +14°C° 0 mm 7 mps 731 mmHg 58%

    24 September, Monday

    Time Temperature Precipitation Wind Pressure Humidity
    00:00 +13°C° 0 mm 8 mps 730 mmHg 56%
    01:00 +15°C° 0 mm 9 mps 728 mmHg 54%
    02:00 +15°C° 0 mm 9 mps 727 mmHg 53%
    03:00 +15°C° 0 mm 9 mps 726 mmHg 53%
    04:00 +15°C° 0 mm 9 mps 724 mmHg 52%
    05:00 +15°C° 0.6 mm 8 mps 724 mmHg 60%
    06:00 +14°C° 0.6 mm 7 mps 723 mmHg 69%
    07:00 +14°C° 0.6 mm 6 mps 723 mmHg 77%
    08:00 +13°C° 0.9 mm 6 mps 723 mmHg 81%
    09:00 +13°C° 0.9 mm 6 mps 723 mmHg 84%
    10:00 +13°C° 0.9 mm 5 mps 723 mmHg 88%
    11:00 +13°C° 0.6 mm 6 mps 723 mmHg 85%
    12:00 +12°C° 0.6 mm 7 mps 724 mmHg 82%
    13:00 +11°C° 0.6 mm 8 mps 724 mmHg 80%
    14:00 +11°C° 0.2 mm 8 mps 725 mmHg 79%
    15:00 +10°C° 0.2 mm 8 mps 726 mmHg 79%
    16:00 +9°C° 0.2 mm 8 mps 727 mmHg 78%
    17:00 +9°C° 0.1 mm 8 mps 728 mmHg 77%
    18:00 +9°C° 0.1 mm 8 mps 728 mmHg 76%
    19:00 +9°C° 0.1 mm 8 mps 729 mmHg 75%
    20:00 +7°C° 0.1 mm 8 mps 730 mmHg 74%
    21:00 +7°C° 0.1 mm 8 mps 730 mmHg 74%
    22:00 +7°C° 0.1 mm 9 mps 731 mmHg 74%
    23:00 +7°C° 0.2 mm 8 mps 731 mmHg 76%

    25 September, Tuesday

    Time Temperature Precipitation Wind Pressure Humidity
    00:00 +7°C° 0.2 mm 8 mps 732 mmHg 78%
    01:00 +6°C° 0.2 mm 8 mps 733 mmHg 80%
    02:00 +6°C° 0.1 mm 7 mps 733 mmHg 80%
    03:00 +6°C° 0.1 mm 7 mps 734 mmHg 79%
    04:00 +5°C° 0.1 mm 7 mps 734 mmHg 78%
    05:00 +5°C° 0 mm 7 mps 735 mmHg 78%
    06:00 +5°C° 0 mm 7 mps 736 mmHg 78%
    07:00 +5°C° 0 mm 7 mps 736 mmHg 77%
    08:00 +6°C° 0.1 mm 7 mps 737 mmHg 74%
    09:00 +8°C° 0.1 mm 7 mps 737 mmHg 70%
    10:00 +8°C° 0.1 mm 7 mps 738 mmHg 66%
    11:00 +9°C° 0.2 mm 7 mps 738 mmHg 63%
    12:00 +9°C° 0.2 mm 7 mps 738 mmHg 60%
    13:00 +9°C° 0.2 mm 7 mps 738 mmHg 57%
    14:00 +9°C° 0.2 mm 6 mps 738 mmHg 59%
    15:00 +9°C° 0.2 mm 6 mps 738 mmHg 60%
    16:00 +8°C° 0.2 mm 5 mps 739 mmHg 62%
    17:00 +7°C° 0.1 mm 4 mps 739 mmHg 66%
    18:00 +7°C° 0.1 mm 3 mps 740 mmHg 69%
    19:00 +4°C° 0.1 mm 3 mps 740 mmHg 73%
    20:00 +5°C° 0 mm 2 mps 741 mmHg 75%
    21:00 +4°C° 0 mm 2 mps 741 mmHg 76%
    22:00 +4°C° 0 mm 2 mps 741 mmHg 77%
    23:00 +3°C° 0 mm 2 mps 742 mmHg 78%
    Show more